Regional Weather Roundup
Issued by NWS

Home | Current Version | Previous Version | Text Only | Print | Product List | Glossary On
Versions: 1 2 3 4 5 6 7 8 9 10 11 12 13 14 15 16 17 18 19 20 21 22 23 24 25 26 27 28 29 30 31 32 33 34 35 36 37 38 39 40 41 42 43 44 45 46 47 48 49 50
261
ASUS43 KLSX 241410
RWRMO

WEATHER SUMMARY FOR MISSOURI
NATIONAL WEATHER SERVICE SPRINGFIELD MO
900 AM CDT FRI MAR 24 2017

NOTE: "FAIR" INDICATES FEW OR NO CLOUDS BELOW 12,000 FEET WITH NO
       SIGNIFICANT WEATHER AND/OR OBSTRUCTIONS TO VISIBILITY.
       CURRENT SKY AND/OR WEATHER CONDITIONS ARE NOT AVAILABLE FOR
       CHILLICOTHE AND FARMINGTON.

MOZ001>031-035>038-043-044-053-054-241500-
...NORTHERN AND WESTERN MISSOURI...

CITY           SKY/WX    TMP DP  RH WIND       PRES   REMARKS
KANSAS CTY INT CLOUDY    68  42  38 S16       29.82R
KANSAS C DTWN  CLOUDY    70  41  34 S15       29.81R
LEE`S SUMMIT   CLOUDY    65  46  50 S14       29.83R
ST JOSEPH      PTSUNNY   67  49  52 S13       29.80R
CHILLICOTHE      N/A     64  48  56 S7        29.86R
KIRKSVILLE     SUNNY     68  32  26 S14       29.88S

$$
MOZ066>068-077>081-088>096-101>105-241500-
...SOUTHWEST MISSOURI...

CITY           SKY/WX    TMP DP  RH WIND       PRES   REMARKS
SPRINGFIELD    CLOUDY    67  48  50 S18       29.91R
JOPLIN         PTSUNNY   67  44  43 S23G33    29.88R
BRANSON        PTSUNNY   66  48  52 S14G22    29.97R

$$
MOZ032>034-039>042-045>050-055>058-069>072-241500-
...CENTRAL MISSOURI...

CITY           SKY/WX    TMP DP  RH WIND       PRES   REMARKS
COLUMBIA       SUNNY     70  49  47 S18G26    29.91F
JEFFERSON CITY SUNNY     71  49  45 SE13      29.92F
ROLLA          SUNNY     66  52  60 S13G30    29.95F
SEDALIA        CLOUDY    68  46  45 S13       29.88S
WHITEMAN AFB   PTSUNNY   67  47  49 S14       29.85R
WARRENSBURG    CLOUDY    68  41  37 S17G24    29.85R
OSAGE BEACH    MOSUNNY  N/A N/A N/A S15G23    29.92F

$$
MOZ051-052-059>065-241500-
...EAST CENTRAL MISSOURI...

CITY           SKY/WX    TMP DP  RH WIND       PRES   REMARKS
ST LOUIS INTL  MOSUNNY   68  52  56 S8        30.00F
SPIRIT OF STL  SUNNY     69  52  54 S10       29.98F
ST CHARLES     SUNNY     63  54  72 SE10      29.99F

$$
MOZ072>076-082>087-097>100-106>115-241500-
...SOUTH CENTRAL AND SOUTHEAST MISSOURI...

CITY           SKY/WX    TMP DP  RH WIND       PRES   REMARKS
CAPE GIRARDEAU MOSUNNY   65  57  75 S17       30.12R
FARMINGTON     MOSUNNY   64  55  72 S14       30.07S
POPLAR BLUFF   CLOUDY    66  58  75 S15G22    30.11R
WEST PLAINS    CLOUDY    65  54  67 S17G26    30.04S

$$




USA.gov is the U.S. government's official web portal to all federal, state and local government web resources and services.